OPS 4682 DEB, 18675

Orbit data source: Space-Track

OPS 4682 DEB, 18675 is space debris in LEO originally from a launch on Sat, 03 Apr 1965 UTC launched from the Air Force Western Test Range (AFWTR). Debris objects in space refer to the collection of defunct objects orbiting the Earth. Examples of debris include non-operational satellites, rocket bodies, and fragments generated from explosions, collisions, or faulty payload assembly.

Loading next visibility...
Identifier
18675, 1965-027AH
Orbit
LEO
Country
Flag of USUS
Related business
Manufacturer
Unknown
Mission
Spacecraft
Bus & Motor
Unknown
Mass
Unknown
Launch date (UTC)
1965-04-03 (61 years ago)
Launch vehicle
Unknown
Launch site
Air Force Western Test Range (AFWTR)
Object type
Payload
Rocket body
Debris
Shape & HBR
Unknown shape, 0.1 m
Radar Cross Section
Small (<0.1 m²)

Expand to show TLE details & history
Last TLE update: 6 hours ago

TLE from 6 hours ago
0 OPS 4682 DEB
1 18675U 65027AH  26104.14466340  .00000254  00000-0  81789-3 0  9995
2 18675  90.2440 353.0434 0028282  75.2826  78.3568 12.99852201850270
Epoch: 2026-04-14T03:28Z
TLE epoch observation values (Epoch: 2026-04-14T03:28:18.917Z)
Latitude
26.07268°
Longitude
-81.24175°
Altitude
1,261.529 km
Speed
7.229 km/s
True Right ascension
11h 32m 38s
True Declination
25° 56' 46"
Sunlit
Object was in full shadow at epoch
Visualization orbit readout
Latitude
Unknown
Longitude
Unknown
Altitude
Unknown
Speed
Unknown
Apparent Right ascension
Unknown
Apparent Declination
Unknown
Sunlit
N/A
Visualization observer readout
Local Sidereal Time
15:49:14
Azimuth
Unknown
Elevation
Unknown
Doppler factor
Unknown
Orbital elements
Apogee altitude
1,281.395 km
Perigee altitude
1,238.191 km
Semi-major axis
7,637.93 km
Eccentricity
0.00283
Inclination
90.244°
RAAN
353.0434°
Arg. of periapsis
75.2826°
True anomaly
78.67444°
Mean anomaly
78.3568°
Eccentric anomaly
78.5156°
Mean motion
3.25147 °/min
Orbital period
110.72 mins
BSTAR
0.00081789
Loading maneuver chart data...
Computing Atmospheric mass density...
Loading historical data...
Loading historical data...
Loading historical data...
Loading historical data...
Loading historical data...
Loading historical data...
Loading historical data...

Documentation

Showing up to 5 results
|